Theta_e
321 335 338 340 346 353 357 355 349 346 339 341 348 355 350 340 349 350 338 348 346 346 344 344 344 345 347 345 343 343 344 344 344 343 343 344 343 341 340 339 338 337 337 337 336 335 334 333 333
326 331 338 335 346 362 359 350 351 346 341 344 345 356 359 355 343 339 340 346 345 344 343 344 344 344 346 342 344 344 344 343 343 343 344 346 343 341 340 339 339 338 336 336 334 334 333 332 331
321 327 334 335 343 357 354 349 345 349 343 344 351 355 356 351 342 338 343 346 343 343 344 344 344 344 345 345 345 344 344 343 343 344 346 343 340 339 337 336 335 336 335 334 332 331 330 329 329
331 334 334 336 337 351 350 347 346 346 343 345 357 361 353 347 344 340 344 344 342 345 345 344 345 346 346 345 345 344 345 344 344 345 345 341 339 338 336 334 333 332 332 331 330 330 330 330 329
331 332 333 334 336 344 347 349 353 347 348 348 355 361 359 351 349 340 343 341 340 345 343 344 345 344 344 344 345 345 344 345 344 346 342 339 337 336 334 332 331 330 331 333 334 334 333 333 332
329 331 334 335 337 344 346 347 350 352 355 353 360 358 355 349 344 339 341 340 341 342 342 343 343 344 344 344 344 344 344 344 344 345 340 337 336 333 331 331 333 338 340 340 340 339 338 337 336
327 330 333 334 336 340 342 344 346 352 354 350 355 359 352 348 340 339 340 339 342 341 342 343 344 344 343 344 344 344 344 344 341 339 337 335 332 331 331 339 340 341 341 340 340 339 338 337 337
325 327 330 332 334 341 344 345 345 350 357 352 355 360 354 346 338 337 340 340 339 341 340 341 342 343 344 340 338 341 342 341 337 336 334 331 330 332 341 345 341 341 340 338 337 336 336 336 336
324 325 327 330 332 338 344 345 346 353 355 350 349 355 349 343 338 338 339 340 338 343 339 340 340 341 340 340 338 336 336 335 335 333 330 329 335 345 344 346 341 340 340 339 339 338 337 339 342
321 323 326 329 331 338 342 344 347 349 351 351 354 350 347 343 340 339 340 341 338 339 337 340 339 340 340 342 341 338 338 333 333 340 343 340 341 345 346 344 341 342 341 342 343 342 341 343 345
320 322 324 326 329 332 341 345 345 348 350 351 355 351 346 344 342 341 339 341 341 337 338 337 341 340 340 344 343 342 342 340 342 345 345 343 341 339 338 338 343 346 344 343 346 341 344 342 340
319 321 323 323 326 327 331 342 352 348 352 353 352 349 346 345 343 340 337 337 335 336 336 338 340 340 339 339 340 339 342 340 342 343 343 338 340 338 340 342 346 347 343 340 340 340 341 341 341
320 321 322 323 324 326 329 332 350 351 351 340 350 347 346 345 342 338 336 333 333 335 336 337 341 341 342 341 339 339 339 340 341 341 341 342 345 347 346 346 344 343 342 341 340 340 340 341 341
321 320 321 323 323 325 326 333 337 352 351 347 350 347 345 343 340 338 337 335 334 334 335 336 338 339 341 341 341 341 340 340 340 341 342 343 345 346 345 345 344 342 340 339 338 338 338 339 340
321 320 321 322 322 324 325 326 336 352 357 355 351 348 347 344 340 341 338 336 335 335 334 336 338 341 341 344 345 342 340 340 341 341 339 338 339 340 342 341 340 336 336 335 334 334 334 334 335
322 320 319 321 322 323 330 333 333 349 355 356 352 351 349 346 342 340 338 337 337 337 339 340 342 345 345 345 344 342 341 340 339 336 334 332 332 335 336 336 333 332 331 330 328 326 328 328 325
322 327 323 324 325 323 333 335 337 339 352 354 353 351 350 349 345 341 339 339 339 339 340 341 342 343 343 342 341 339 338 336 335 333 331 329 327 328 330 330 328 326 325 323 322 322 321 320 318
323 329 329 328 327 327 332 334 337 337 349 353 352 350 350 350 347 344 341 341 340 340 339 340 341 341 339 340 338 336 336 333 331 328 325 324 322 323 326 324 322 319 320 318 317 321 318 319 315
322 324 324 325 327 332 335 335 337 345 348 351 352 350 349 350 348 345 341 340 339 340 340 340 339 338 338 337 337 335 334 329 325 322 320 319 319 319 320 318 317 316 314 315 315 319 319 315 312
321 321 322 323 323 324 330 336 336 346 348 349 351 351 348 347 347 345 341 340 339 339 339 339 338 336 336 335 336 335 331 327 322 319 317 316 316 316 316 315 314 314 313 311 312 313 317 313 310
321 322 322 322 322 323 324 325 329 341 345 346 348 346 349 347 348 345 341 338 337 338 338 338 338 335 335 336 333 327 323 321 320 317 315 313 314 313 314 313 312 310 311 310 310 311 311 314 311
322 322 322 322 321 321 323 325 329 328 338 347 347 347 349 348 347 344 340 337 335 335 336 336 335 333 333 330 330 327 325 323 322 317 314 311 311 311 311 311 309 308 310 309 310 310 310 310 311
322 322 322 323 323 324 322 323 324 327 332 338 347 345 346 348 346 343 339 336 334 333 333 333 333 330 329 329 328 326 326 321 318 315 313 311 311 310 311 311 311 310 309 309 309 310 309 310 310
325 324 325 325 325 327 325 325 327 326 328 327 333 342 342 345 346 343 338 335 333 330 329 329 329 328 326 326 326 326 324 320 315 314 313 311 310 309 309 311 310 309 309 308 308 308 308 308 309
330 331 330 330 329 327 327 326 327 327 327 327 328 330 342 343 344 343 337 334 331 327 326 325 325 323 322 322 322 320 317 316 315 314 313 310 310 309 310 310 309 308 308 307 306 306 307 306 307
331 332 335 341 340 339 334 334 331 330 330 331 331 330 340 341 342 340 336 331 327 324 323 322 320 319 319 318 317 317 316 316 315 315 312 312 310 308 309 308 307 306 307 306 305 305 306 306 305
323 326 329 331 330 334 333 332 330 337 335 333 332 333 332 337 342 339 333 327 325 321 320 319 318 317 316 316 315 314 314 313 312 312 312 310 309 307 307 307 306 305 305 305 304 305 305 304 305
319 320 322 329 336 340 335 335 342 333 334 332 334 335 341 340 339 334 329 325 321 319 318 317 316 316 315 313 312 312 311 310 310 310 311 309 307 306 306 305 305 305 305 305 305 304 305 305 304
317 317 319 326 331 340 342 339 331 328 327 327 328 328 336 336 330 328 324 321 319 317 316 316 315 314 313 312 311 310 309 308 308 309 310 309 308 307 305 305 304 305 305 305 303 304 304 304 304
316 319 321 333 328 328 329 332 324 324 323 324 324 324 329 329 326 323 320 319 317 316 315 315 310 309 308 308 308 306 306 304 303 306 307 308 308 306 304 303 303 303 304 304 303 303 303 302 302
Wind_Speed
14 12 12 17 7 2 6 4 24 18 15 15 17 20 19 17 9 10 18 28 26 24 21 19 18 16 15 15 18 19 17 16 16 16 15 16 16 15 15 15 14 14 13 12 12 11 11 11 11
12 17 23 11 12 5 1 19 23 11 15 17 11 24 22 17 13 17 20 29 26 23 22 19 18 17 17 18 17 18 16 15 15 14 14 14 13 12 12 12 12 11 10 10 10 9 9 9 9
17 15 10 9 14 4 1 18 20 31 13 14 17 17 9 13 19 19 26 28 24 23 21 21 19 17 17 17 18 17 15 14 13 13 12 12 11 10 9 9 9 9 8 7 7 7 7 7 7
10 9 10 11 19 9 14 9 28 18 6 10 21 15 12 16 21 25 26 25 25 25 20 22 20 18 18 18 18 16 14 13 12 11 10 10 9 7 7 7 7 6 6 6 6 6 6 6 6
20 9 13 18 25 19 23 35 35 19 10 10 21 15 11 5 25 26 26 23 25 25 21 21 19 18 18 19 17 15 14 12 10 10 9 8 7 6 5 5 5 5 5 5 5 5 5 5 5
11 12 15 17 13 7 26 31 15 27 23 21 21 17 9 17 25 26 24 24 29 24 22 21 19 18 17 17 18 16 13 11 10 9 7 6 4 4 4 5 5 5 5 4 4 4 4 4 5
16 13 19 24 18 8 9 7 7 30 30 8 23 14 12 18 24 24 25 21 25 24 20 20 18 17 16 16 15 13 12 11 9 8 6 5 4 4 4 4 4 4 4 4 4 4 4 3 4
13 14 23 21 19 7 18 2 7 11 12 12 17 9 14 21 26 25 25 21 21 25 21 19 18 17 15 15 14 13 10 8 8 6 4 4 5 5 4 3 5 3 4 5 5 5 3 1 1
19 15 16 22 23 6 3 8 9 18 24 11 4 17 28 33 28 26 26 25 20 18 20 21 19 17 17 15 13 12 11 8 6 5 3 5 6 4 6 4 4 0 2 2 3 4 4 4 5
17 15 22 23 24 8 6 6 11 8 14 14 19 26 34 31 28 25 25 26 22 21 21 19 20 17 20 17 14 11 9 8 7 5 5 4 9 8 12 7 6 2 0 1 1 3 5 8 13
20 19 19 24 26 17 7 8 11 13 11 17 21 24 24 27 24 23 23 23 21 22 19 19 20 18 17 15 10 14 15 12 8 7 5 6 5 6 8 11 12 5 4 4 4 11 8 5 10
21 22 19 26 29 27 16 6 12 29 11 24 18 20 23 22 19 22 21 22 25 23 20 20 18 18 17 17 15 17 17 12 10 11 8 5 4 4 7 6 2 7 5 5 7 10 10 8 9
19 20 20 21 25 26 13 15 18 27 17 26 10 19 21 19 20 25 25 23 23 23 21 23 20 18 10 6 13 8 10 8 11 8 5 6 6 2 2 5 3 6 6 7 6 8 8 8 10
15 15 21 20 24 20 18 17 19 2 14 20 24 21 19 20 20 19 22 20 18 18 19 17 18 17 11 10 10 9 8 8 6 6 4 1 1 2 2 1 1 2 2 5 7 9 8 10 10
17 17 19 18 21 20 16 23 18 24 27 22 20 19 19 18 21 18 18 18 17 17 19 20 18 16 12 11 9 8 8 6 7 4 3 2 2 2 5 1 2 2 1 5 6 6 8 10 10
11 16 16 18 20 18 15 22 18 18 20 21 19 20 20 18 18 20 20 19 16 18 14 16 15 15 10 13 10 9 9 9 8 6 4 4 4 2 3 2 0 4 4 5 4 6 8 6 8
16 13 19 20 20 20 19 20 16 16 19 19 18 18 18 18 17 20 23 22 20 18 16 14 11 16 12 15 11 10 11 9 9 7 5 4 3 3 7 2 3 4 5 6 4 3 6 6 7
18 16 12 15 20 21 18 20 18 22 19 20 19 17 16 18 19 25 26 23 21 20 19 16 12 21 17 14 12 10 11 10 9 7 4 4 2 2 7 3 4 5 3 7 7 3 3 3 8
17 20 18 20 14 20 20 20 19 17 18 20 21 20 19 18 16 24 25 24 22 21 22 19 19 20 20 17 14 15 14 12 7 4 5 3 3 2 7 5 6 8 4 8 10 3 3 5 10
20 18 16 13 19 17 13 20 18 21 21 21 22 24 22 19 21 19 22 24 23 21 21 21 18 20 16 16 14 13 17 12 11 8 6 4 4 6 4 7 4 9 5 5 8 13 8 7 13
14 15 16 18 18 19 17 20 16 17 23 22 5 6 8 17 23 21 21 23 22 21 20 24 19 22 17 15 15 15 15 12 10 6 8 6 6 7 7 7 9 7 9 9 7 8 12 7 10
16 18 19 19 17 14 18 15 17 18 19 22 22 26 30 36 21 21 23 25 23 21 18 19 21 18 16 14 14 13 10 12 12 12 10 7 7 7 8 8 8 10 9 10 9 9 10 11 11
17 18 18 18 18 20 20 14 18 16 22 24 28 27 29 26 26 23 20 25 25 23 21 16 17 19 14 16 10 16 8 18 15 13 12 9 9 8 8 9 9 10 11 12 10 10 13 10 11
18 17 17 15 17 16 20 19 17 18 19 19 21 27 25 26 27 27 30 27 25 23 19 16 14 14 14 11 9 11 12 15 16 13 11 12 10 9 9 9 10 11 9 9 9 10 11 11 9
21 15 12 15 15 15 20 20 17 21 21 20 21 15 25 24 27 27 26 22 23 25 23 20 15 13 11 9 8 9 11 12 15 12 12 13 11 10 7 7 8 9 9 9 8 9 10 11 11
21 17 10 8 14 18 24 15 13 14 6 18 17 0 12 22 16 20 15 25 27 25 22 23 17 14 12 11 12 11 11 11 10 2 11 6 16 12 8 8 9 8 8 8 7 8 9 9 12
19 14 21 18 19 16 15 22 21 31 35 21 18 18 9 14 26 27 22 25 25 26 23 24 20 17 15 14 13 11 8 11 15 9 8 14 15 13 9 8 8 8 7 7 7 8 8 8 9
17 18 17 6 8 11 12 11 10 26 28 31 34 15 22 21 25 19 15 22 26 27 26 24 21 18 16 15 13 11 12 12 11 8 12 16 15 12 9 8 8 8 7 6 4 8 7 7 8
18 16 18 2 3 3 8 3 12 17 21 22 28 30 14 12 16 20 17 26 29 26 25 22 23 20 17 16 18 16 15 12 10 8 8 10 10 8 7 7 6 6 6 6 7 8 7 6 6
16 14 11 7 12 9 10 9 9 13 20 18 23 26 25 15 16 19 20 26 24 25 24 20 28 27 29 28 26 22 18 13 9 10 9 7 8 6 6 6 6 7 6 6 5 6 6 5 4
Wind_Direction
291 276 241 244 258 336 19 92 277 284 90 90 68 86 105 124 206 124 128 115 123 128 129 127 126 124 125 127 119 113 111 111 111 112 113 109 103 99 92 86 80 79 78 75 71 66 63 60 56
279 282 245 260 258 123 241 274 273 272 105 101 104 114 94 89 115 128 132 123 126 129 130 130 131 131 128 121 118 117 116 118 117 118 113 106 102 97 92 87 82 77 74 69 67 61 56 52 48
285 273 273 244 250 57 242 247 264 269 127 143 109 76 70 110 123 134 131 123 129 130 131 136 135 133 129 126 128 123 122 122 124 119 114 111 107 100 91 85 80 77 72 66 60 51 45 38 34
271 278 231 258 261 176 198 271 246 228 150 130 95 93 89 119 129 131 137 130 135 130 132 137 137 134 134 133 130 130 125 123 124 121 119 116 111 99 89 81 77 73 68 57 45 42 33 25 17
252 262 277 264 264 182 216 185 244 177 135 122 114 114 104 98 115 140 136 141 137 127 137 138 140 140 139 140 140 135 133 129 133 129 127 124 118 105 87 74 62 52 49 40 30 17 8 6 3
257 248 261 270 284 34 216 196 95 68 309 113 107 119 108 124 136 145 143 148 134 131 139 139 140 141 142 146 148 145 141 145 141 139 137 131 121 106 89 71 53 36 24 8 0 348 347 349 350
245 260 257 264 273 264 296 154 180 148 200 164 137 114 137 147 142 149 144 141 126 136 139 143 146 147 149 149 151 152 152 157 158 154 151 146 134 108 88 72 50 34 23 12 9 356 2 8 17
245 254 266 275 278 292 307 271 154 92 35 93 126 150 157 153 153 152 144 142 150 141 147 149 152 153 153 156 162 164 167 169 168 168 163 160 163 143 119 112 45 40 54 57 48 37 19 44 58
251 252 257 263 269 248 134 239 161 115 145 170 159 148 149 146 154 157 150 147 159 146 158 157 158 161 162 164 173 178 182 182 183 174 155 200 220 209 180 177 271 24 56 65 52 9 323 284 274
236 247 249 260 268 347 325 258 152 158 145 137 88 117 138 149 163 159 160 149 156 157 166 156 166 165 171 165 181 173 187 185 187 186 205 251 258 205 170 250 257 262 47 206 353 318 321 302 301
239 242 256 262 269 302 168 232 16 202 174 151 127 134 144 154 161 162 176 155 159 169 166 168 153 167 167 157 157 180 191 194 195 192 201 244 277 217 245 247 226 215 263 277 278 303 296 335 346
252 242 241 265 281 293 261 141 86 293 82 63 132 148 150 163 164 168 170 165 167 168 170 162 165 178 177 188 169 189 189 176 198 202 197 216 245 217 257 347 170 261 59 3 333 331 4 350 321
241 259 250 254 269 275 292 283 178 210 106 127 198 166 159 165 172 173 170 166 157 165 163 162 158 181 193 146 175 196 186 168 171 136 172 230 253 292 99 4 4 343 352 336 337 326 335 323 309
252 255 273 257 263 268 270 267 264 119 70 160 167 161 168 169 176 164 146 137 141 158 158 164 159 178 182 177 167 181 164 172 130 148 149 143 297 210 66 309 318 344 15 336 324 320 330 315 310
257 266 260 264 259 259 262 261 253 154 179 139 159 166 170 167 169 134 139 142 161 148 166 146 160 164 183 180 155 157 184 164 152 149 109 18 137 85 130 339 67 342 28 329 322 322 319 318 316
245 241 255 263 243 243 246 258 236 161 147 157 170 179 172 166 144 151 147 152 158 149 149 157 170 156 150 152 157 163 156 143 137 130 122 90 59 173 82 78 1 288 13 321 293 338 327 324 322
245 242 239 244 259 223 230 251 265 220 168 162 176 187 173 153 151 160 161 163 156 151 156 169 162 159 165 159 162 154 151 146 142 137 129 76 56 40 88 156 6 28 346 332 321 311 336 336 328
258 229 253 236 231 217 222 223 238 254 179 173 176 186 187 174 171 168 162 163 162 159 162 167 150 153 157 159 156 152 154 147 143 132 106 133 48 53 104 16 19 56 21 5 343 6 350 2 327
263 279 295 305 298 181 211 231 222 171 188 196 179 186 191 189 179 166 166 165 167 169 167 164 162 151 156 160 172 164 165 153 132 114 97 98 81 76 101 92 83 41 38 25 1 323 278 20 342
254 269 276 294 298 302 262 225 227 179 196 208 196 181 188 183 184 179 178 169 174 174 167 177 171 175 175 182 173 194 165 147 135 132 108 96 85 92 85 91 102 88 44 65 29 16 351 52 21
274 276 283 276 277 279 275 273 273 197 197 210 117 342 327 194 182 181 188 179 178 181 182 174 180 165 178 189 163 135 124 133 135 131 116 90 83 86 91 100 93 95 79 53 62 36 18 18 42
266 271 255 259 259 264 267 264 233 241 226 199 196 199 184 206 186 176 177 175 174 179 188 179 171 173 184 162 158 155 157 174 172 144 125 105 102 88 91 88 94 90 72 63 51 45 37 46 37
271 265 272 277 277 277 248 267 276 261 230 219 211 202 194 177 176 174 178 170 171 171 169 175 169 163 176 174 173 165 152 136 129 122 124 123 111 103 96 96 98 89 76 67 58 57 50 49 45
297 297 285 270 271 256 261 254 255 259 263 254 229 199 198 182 173 169 169 167 165 155 152 146 148 152 149 168 154 166 161 143 124 132 152 149 123 103 93 95 91 87 83 77 75 66 65 49 68
335 319 279 267 241 245 239 243 254 260 261 261 271 243 198 190 182 163 154 154 156 142 135 132 138 123 132 148 138 123 124 123 132 159 179 143 136 112 96 94 93 87 89 81 74 69 64 60 58
329 324 300 288 308 305 311 295 297 297 6 16 346 129 179 193 173 110 137 144 146 138 135 126 126 130 129 128 126 126 129 137 151 189 144 165 117 108 106 102 97 97 97 96 84 74 69 65 53
302 280 288 299 299 295 285 293 289 10 2 9 4 348 355 132 115 132 135 137 139 130 130 129 134 133 132 127 122 132 118 107 104 101 99 100 106 116 119 118 109 103 103 97 86 81 74 59 63
285 306 302 5 298 295 272 261 28 4 1 354 350 357 47 97 116 120 118 123 123 123 124 125 133 134 129 124 127 113 92 93 98 99 96 103 107 114 127 130 127 115 105 106 91 85 74 72 68
320 311 311 273 242 296 307 52 13 10 10 355 336 335 93 110 116 119 117 113 117 125 128 134 127 131 139 143 119 114 100 95 100 110 101 114 120 127 132 131 123 114 104 95 103 102 95 73 52
283 326 350 335 289 270 265 275 52 27 2 360 342 334 326 125 120 115 113 120 129 129 131 117 95 92 92 101 104 96 93 89 91 85 94 105 128 123 120 116 111 102 90 82 78 58 73 86 80